794  
ASUS44 KMOB 160812  
RWRMOB  
REGIONAL WEATHER ROUNDUP  
NATIONAL WEATHER SERVICE MOBILE AL  
300 AM CDT MON JUL 16 2018  
 
NOTE: "FAIR" INDICATES FEW OR NO CLOUDS BELOW 12,000 FEET WITH NO  
SIGNIFICANT WEATHER AND/OR S TO VISIBILITY
.  
 
* THESE STATIONS ARE PART OF THE UNIVERSITY OF SOUTH ALABAMA  
MESONET AND ARE NOT UNDER NWS OR FAA QUALITY CONTROL.
 
 
ALZ061>064-160900-  
COASTAL ALABAMA  
 
CITY SKY/WX TMP DP RH WIND PRES REMARKS
 
MOBILE REG APT FAIR 74 73 97 CALM 30.02S  
BROOKLEY FIELD FAIR 77 76 96 N3 30.03R  
USA CAMPUS* NOT AVBL  
DOG RIVER* N/A 75 75 100 CALM N/A  
 
 
CITY SKY/WX TMP DP RH WIND PRES REMARKS
 
GULF SHORES FAIR 75 73 94 CALM 30.01S  
 

 
 
ALZ051>060-160900-  
INTERIOR SOUTHWEST AND SOUTH CENTRAL ALABAMA  
 
CITY SKY/WX TMP DP RH WIND PRES REMARKS
 
GREENVILLE FOG 74 71 91 CALM 30.03R VSB 1  
EVERGREEN CLOUDY 73 71 93 CALM 30.03S  
ATMORE* N/A N/A N/A N/A CALM 30.75R  
ANDALUSIA/OPP FOG 74 71 91 CALM 30.03S VSB 1/4  
ANDALUSIA* N/A N/A N/A N/A CALM 30.03S  
FLORALA APT FAIR 72 70 93 N3 30.04S  
FLORALA* N/A 72 72 100 CALM 30.72S  
 

 
 
FLZ001>006-160900-  
WESTERN FLORIDA PANHANDLE  
 
CITY SKY/WX TMP DP RH WIND PRES REMARKS
 
PENSACOLA FAIR 77 72 84 NW5 30.00F  
NAS PENSACOLA NOT AVBL  
MILTON FAIR 71 71 100 CALM 30.01F  
WHTNG S FIELD NOT AVBL  
 
 
CITY SKY/WX TMP DP RH WIND PRES REMARKS
 
JAY* N/A N/A N/A N/A CALM N/A  
DUKE FIELD FAIR 74 72 96 CALM 30.01S  
CRESTVIEW FAIR 73 71 93 CALM 30.02F  
VALPARAISO PTCLDY 76 72 87 CALM 30.00F  
DESTIN FAIR 78 74 87 CALM 30.00F  
 

 
 
MSZ076-079-160900-  
INTERIOR SOUTHEAST MISSISSIPPI  
 
CITY SKY/WX TMP DP RH WIND PRES REMARKS
 
LEAKESVILLE* NOT AVBL  
AGRICOLA* N/A 72 72 100 CALM 30.01S  
 

 
 
MARINE OBSERVATIONS  
 
STATION/POSITION TIME TEMP WIND PRES WAVE
 
AIR SEA DIR/SP/G HT/PER  
(UTC) (F) (DEG/KT/KT) (MB) (FT/S)  
PETIT BOIS ISLND 0742 84 230/ 6/ 7 1016.7F  
GRAND BAY 0645 77 CALM 1017.0F  
KATRINA CUT 0730 84 220/ 5 1015.9F  
CEDAR POINT 0730 84 180/ 5 1015.9F  
E DAUPHIN ISLAND 0700 83 180/ 5/ 6 1016.0F  
MIDDLE BAY LIGHT 0730 83 240/ 2 1015.2F  
USCG MOBILE BAY 0742 77 90 20/ 2/ 3 1016.2F  
STATE DOCKS 0742 79 89 1016.3R  
MEAHER PARK 0730 76 CALM 1016.6F  
WEEKS BAY 0645 74 1016.0S  
FORT MORGAN 0742 83 190/ 5/ 6 N/A  
12 S ORANGE BCH 0750 85 230/ 6/ 8 1015.9F 1/ 8  
PENSACOLA BAY 0742 80 89 10/ 2/ 4 1016.2F  
64 S DAUPHIN ISL 0750 87 270/ 10/ 12 1016.2F 1/ 8  
 

 
 
SELECTED LOCATIONS ACROSS THE REGION  
 
CITY SKY/WX TMP DP RH WIND PRES REMARKS
 
NEW ORLEANS MOCLDY 81 79 94 CALM 30.01F  
GULFPORT FAIR 77 74 90 CALM 30.00F  
PASCAGOULA AP FAIR 74 72 93 CALM 30.00F  
PASCAGOULA* N/A 75 75 100 CALM 30.00F  
HATTIESBURG FAIR 75 72 90 CALM 30.02S  
LAUREL FAIR 74 72 93 CALM 30.03S  
MERIDIAN MOCLDY 75 73 93 CALM 30.01F FOG  
JACKSON FAIR 75 73 93 S3 30.01S  
MONTGOMERY FAIR 73 72 96 CALM 30.03S  
TROY CLOUDY 72 70 93 CALM 30.04S  
ASHFORD* N/A N/A N/A N/A CALM 30.03S  
DOTHAN FAIR 75 72 90 W5 30.06R  
PANAMA CITY FAIR 76 74 93 NW3 30.00S  
 

 
 
 
 
CLICK HERE TO GO TO PREVIOUS BULLETINS.

The Nexlab AL Page
The Nexlab FL Page
The Nexlab MS Page Main Text Page